Location: *
(46.4000°N, 12.6667°E)
Time: 00:16:34
(UTC+00:00)

CZ-4C R/B - Pass Details

Date: 25 June 2021
Orbit: 606 x 1396 km, 63.4° (Epoch: 30 July)

Event Time Altitude Azimuth Distance (km) Brightness Sun altitude
Exits shadow 00:23:03 21° 146° (SE) 1,590 3.3 -18.4°
Maximum altitude 00:24:57 26° 112° (ESE) 1,439 3.4 -18.3°
Drops below altitude 10° 00:29:29 10° 57° (ENE) 2,460 5.4 -18.0°
Sets 00:32:33 0° 46° (NE) 3,545 6.6 -17.9°
